<?xml version="1.0" encoding="UTF-8" standalone="no" ?>
<gpx xmlns="http://www.topografix.com/GPX/1/1" xmlns:xsi="http://www.w3.org/2001/XMLSchema-instance" xsi:schemaLocation="http://www.topografix.com/GPX/1/1 http://www.topografix.com/GPX/1/1/gpx.xsd" version="1.1" creator="VisuGPX - https://www.visugpx.com">
  <metadata>
    <name>Peyrouse-PierrePercee_A_TESTER</name>
    <desc><![CDATA[Sortie a valider]]></desc>
  </metadata>
  <trk>
    <name><![CDATA[LacMort_Peyrouse_PierrePercee]]></name>
    <trkseg>
      <trkpt lat="44.998" lon="5.77581">
        <ele>917.1</ele>
        <time>2014-05-21T21:44:25Z</time>
      </trkpt>
      <trkpt lat="44.99774" lon="5.77779">
        <ele>926.3</ele>
        <time>2014-05-21T21:44:25Z</time>
      </trkpt>
      <trkpt lat="44.99717" lon="5.7794">
        <ele>929.5</ele>
        <time>2014-05-21T21:44:25Z</time>
      </trkpt>
      <trkpt lat="44.99762" lon="5.78179">
        <ele>933.4</ele>
        <time>2014-05-21T21:44:25Z</time>
      </trkpt>
      <trkpt lat="44.99793" lon="5.78315">
        <ele>935.9</ele>
        <time>2014-05-21T21:44:25Z</time>
      </trkpt>
      <trkpt lat="44.99766" lon="5.78423">
        <ele>937.6</ele>
        <time>2014-05-21T21:44:25Z</time>
      </trkpt>
      <trkpt lat="44.99809" lon="5.78472">
        <ele>940.4</ele>
        <time>2014-05-21T21:44:25Z</time>
      </trkpt>
      <trkpt lat="44.99786" lon="5.78517">
        <ele>941.9</ele>
        <time>2014-05-21T21:44:25Z</time>
      </trkpt>
      <trkpt lat="44.99818" lon="5.78796">
        <ele>967.3</ele>
        <time>2014-05-21T21:44:25Z</time>
      </trkpt>
      <trkpt lat="44.999" lon="5.79036">
        <ele>1011.7</ele>
        <time>2014-05-21T21:44:25Z</time>
      </trkpt>
      <trkpt lat="44.99917" lon="5.79174">
        <ele>1021.7</ele>
        <time>2014-05-21T21:44:25Z</time>
      </trkpt>
      <trkpt lat="45.00005" lon="5.79349">
        <ele>1044.1</ele>
        <time>2014-05-21T21:44:25Z</time>
      </trkpt>
      <trkpt lat="45.00082" lon="5.79499">
        <ele>1047.1</ele>
        <time>2014-05-21T21:44:25Z</time>
      </trkpt>
      <trkpt lat="45.00171" lon="5.79499">
        <ele>1053.2</ele>
        <time>2014-05-21T21:44:25Z</time>
      </trkpt>
      <trkpt lat="45.00222" lon="5.79546">
        <ele>1053.9</ele>
        <time>2014-05-21T21:44:25Z</time>
      </trkpt>
      <trkpt lat="45.00272" lon="5.79626">
        <ele>1056.5</ele>
        <time>2014-05-21T21:44:25Z</time>
      </trkpt>
      <trkpt lat="45.00277" lon="5.79479">
        <ele>1059.3</ele>
        <time>2014-05-21T21:44:25Z</time>
      </trkpt>
      <trkpt lat="45.00198" lon="5.79389">
        <ele>1065.9</ele>
        <time>2014-05-21T21:44:25Z</time>
      </trkpt>
      <trkpt lat="45.00232" lon="5.79309">
        <ele>1076.5</ele>
        <time>2014-05-21T21:44:25Z</time>
      </trkpt>
      <trkpt lat="45.00376" lon="5.79244">
        <ele>1103.4</ele>
        <time>2014-05-21T21:44:25Z</time>
      </trkpt>
      <trkpt lat="45.00479" lon="5.79226">
        <ele>1109.8</ele>
        <time>2014-05-21T21:44:25Z</time>
      </trkpt>
      <trkpt lat="45.00595" lon="5.79194">
        <ele>1121.5</ele>
        <time>2014-05-21T21:44:25Z</time>
      </trkpt>
      <trkpt lat="45.00735" lon="5.79135">
        <ele>1128.5</ele>
        <time>2014-05-21T21:44:25Z</time>
      </trkpt>
      <trkpt lat="45.00864" lon="5.79146">
        <ele>1136.4</ele>
        <time>2014-05-21T21:44:25Z</time>
      </trkpt>
      <trkpt lat="45.00849" lon="5.79255">
        <ele>1153.7</ele>
        <time>2014-05-21T21:44:25Z</time>
      </trkpt>
      <trkpt lat="45.00955" lon="5.79242">
        <ele>1157.9</ele>
        <time>2014-05-21T21:44:25Z</time>
      </trkpt>
      <trkpt lat="45.01057" lon="5.79238">
        <ele>1157.1</ele>
        <time>2014-05-21T21:44:25Z</time>
      </trkpt>
      <trkpt lat="45.01153" lon="5.79291">
        <ele>1165.4</ele>
        <time>2014-05-21T21:44:25Z</time>
      </trkpt>
      <trkpt lat="45.01467" lon="5.79382">
        <ele>1195.8</ele>
        <time>2014-05-21T21:44:25Z</time>
      </trkpt>
      <trkpt lat="45.01556" lon="5.79433">
        <ele>1208.8</ele>
        <time>2014-05-21T21:44:25Z</time>
      </trkpt>
      <trkpt lat="45.01699" lon="5.79436">
        <ele>1218.6</ele>
        <time>2014-05-21T21:44:25Z</time>
      </trkpt>
      <trkpt lat="45.01773" lon="5.79423">
        <ele>1221.3</ele>
        <time>2014-05-21T21:44:25Z</time>
      </trkpt>
      <trkpt lat="45.01898" lon="5.79468">
        <ele>1212.8</ele>
        <time>2014-05-21T21:44:25Z</time>
      </trkpt>
      <trkpt lat="45.02095" lon="5.79534">
        <ele>1186.3</ele>
        <time>2014-05-21T21:44:25Z</time>
      </trkpt>
      <trkpt lat="45.02408" lon="5.79714">
        <ele>1155.3</ele>
        <time>2014-05-21T21:44:25Z</time>
      </trkpt>
      <trkpt lat="45.0249" lon="5.79877">
        <ele>1186.7</ele>
        <time>2014-05-21T21:44:25Z</time>
      </trkpt>
      <trkpt lat="45.02561" lon="5.79933">
        <ele>1188.9</ele>
        <time>2014-05-21T21:44:25Z</time>
      </trkpt>
      <trkpt lat="45.02625" lon="5.8018">
        <ele>1190.6</ele>
        <time>2014-05-21T21:44:25Z</time>
      </trkpt>
      <trkpt lat="45.02685" lon="5.80275">
        <ele>1200.9</ele>
        <time>2014-05-21T21:44:25Z</time>
      </trkpt>
      <trkpt lat="45.02775" lon="5.80313">
        <ele>1187.7</ele>
        <time>2014-05-21T21:44:25Z</time>
      </trkpt>
      <trkpt lat="45.029" lon="5.80537">
        <ele>1195</ele>
        <time>2014-05-21T21:44:25Z</time>
      </trkpt>
      <trkpt lat="45.02905" lon="5.80601">
        <ele>1197.4</ele>
        <time>2014-05-21T21:44:25Z</time>
      </trkpt>
      <trkpt lat="45.02971" lon="5.80572">
        <ele>1171.5</ele>
        <time>2014-05-21T21:44:25Z</time>
      </trkpt>
      <trkpt lat="45.02969" lon="5.80618">
        <ele>1171.3</ele>
        <time>2014-05-21T21:44:25Z</time>
      </trkpt>
      <trkpt lat="45.02984" lon="5.80694">
        <ele>1157.4</ele>
        <time>2014-05-21T21:44:25Z</time>
      </trkpt>
      <trkpt lat="45.02949" lon="5.80816">
        <ele>1150.3</ele>
        <time>2014-05-21T21:44:25Z</time>
      </trkpt>
      <trkpt lat="45.02912" lon="5.80972">
        <ele>1135</ele>
        <time>2014-05-21T21:44:25Z</time>
      </trkpt>
      <trkpt lat="45.02979" lon="5.80887">
        <ele>1128.8</ele>
        <time>2014-05-21T21:44:25Z</time>
      </trkpt>
      <trkpt lat="45.03066" lon="5.80777">
        <ele>1120.5</ele>
        <time>2014-05-21T21:44:25Z</time>
      </trkpt>
      <trkpt lat="45.0311" lon="5.80776">
        <ele>1110.2</ele>
        <time>2014-05-21T21:44:25Z</time>
      </trkpt>
      <trkpt lat="45.03085" lon="5.80857">
        <ele>1109.7</ele>
        <time>2014-05-21T21:44:25Z</time>
      </trkpt>
      <trkpt lat="45.03123" lon="5.80918">
        <ele>1091.6</ele>
        <time>2014-05-21T21:44:25Z</time>
      </trkpt>
      <trkpt lat="45.03148" lon="5.81086">
        <ele>1074.3</ele>
        <time>2014-05-21T21:44:25Z</time>
      </trkpt>
      <trkpt lat="45.03226" lon="5.81197">
        <ele>1062.5</ele>
        <time>2014-05-21T21:44:25Z</time>
      </trkpt>
      <trkpt lat="45.03275" lon="5.81157">
        <ele>1051.6</ele>
        <time>2014-05-21T21:44:25Z</time>
      </trkpt>
      <trkpt lat="45.03341" lon="5.81081">
        <ele>1037.3</ele>
        <time>2014-05-21T21:44:25Z</time>
      </trkpt>
      <trkpt lat="45.03404" lon="5.81104">
        <ele>1021.4</ele>
        <time>2014-05-21T21:44:25Z</time>
      </trkpt>
      <trkpt lat="45.03429" lon="5.81093">
        <ele>1017.2</ele>
        <time>2014-05-21T21:44:25Z</time>
      </trkpt>
      <trkpt lat="45.03456" lon="5.81036">
        <ele>1016.2</ele>
        <time>2014-05-21T21:44:25Z</time>
      </trkpt>
      <trkpt lat="45.03502" lon="5.80985">
        <ele>1009.8</ele>
        <time>2014-05-21T21:44:25Z</time>
      </trkpt>
      <trkpt lat="45.03484" lon="5.80902">
        <ele>1019.2</ele>
        <time>2014-05-21T21:44:25Z</time>
      </trkpt>
      <trkpt lat="45.03415" lon="5.80831">
        <ele>1037.3</ele>
        <time>2014-05-21T21:44:25Z</time>
      </trkpt>
      <trkpt lat="45.03428" lon="5.80795">
        <ele>1037.5</ele>
        <time>2014-05-21T21:44:25Z</time>
      </trkpt>
      <trkpt lat="45.03383" lon="5.80624">
        <ele>1051.7</ele>
        <time>2014-05-21T21:44:25Z</time>
      </trkpt>
      <trkpt lat="45.03393" lon="5.80541">
        <ele>1056.6</ele>
        <time>2014-05-21T21:44:25Z</time>
      </trkpt>
      <trkpt lat="45.03391" lon="5.80386">
        <ele>1067.3</ele>
        <time>2014-05-21T21:44:25Z</time>
      </trkpt>
      <trkpt lat="45.0332" lon="5.80217">
        <ele>1061.6</ele>
        <time>2014-05-21T21:44:25Z</time>
      </trkpt>
      <trkpt lat="45.03216" lon="5.8012">
        <ele>1064.5</ele>
        <time>2014-05-21T21:44:25Z</time>
      </trkpt>
      <trkpt lat="45.0312" lon="5.79993">
        <ele>1055.6</ele>
        <time>2014-05-21T21:44:25Z</time>
      </trkpt>
      <trkpt lat="45.03002" lon="5.80006">
        <ele>1050.7</ele>
        <time>2014-05-21T21:44:25Z</time>
      </trkpt>
      <trkpt lat="45.02898" lon="5.79922">
        <ele>1051</ele>
        <time>2014-05-21T21:44:25Z</time>
      </trkpt>
      <trkpt lat="45.02796" lon="5.79674">
        <ele>1036.8</ele>
        <time>2014-05-21T21:44:25Z</time>
      </trkpt>
      <trkpt lat="45.02697" lon="5.79705">
        <ele>1078.6</ele>
        <time>2014-05-21T21:44:25Z</time>
      </trkpt>
      <trkpt lat="45.02586" lon="5.79688">
        <ele>1087.6</ele>
        <time>2014-05-21T21:44:25Z</time>
      </trkpt>
      <trkpt lat="45.02505" lon="5.79599">
        <ele>1073.6</ele>
        <time>2014-05-21T21:44:25Z</time>
      </trkpt>
      <trkpt lat="45.02533" lon="5.7954">
        <ele>1066.6</ele>
        <time>2014-05-21T21:44:25Z</time>
      </trkpt>
      <trkpt lat="45.025" lon="5.79451">
        <ele>1058.9</ele>
        <time>2014-05-21T21:44:25Z</time>
      </trkpt>
      <trkpt lat="45.02502" lon="5.794">
        <ele>1053.5</ele>
        <time>2014-05-21T21:44:25Z</time>
      </trkpt>
      <trkpt lat="45.02309" lon="5.79261">
        <ele>1044.4</ele>
        <time>2014-05-21T21:44:25Z</time>
      </trkpt>
      <trkpt lat="45.02199" lon="5.79173">
        <ele>1040.1</ele>
        <time>2014-05-21T21:44:25Z</time>
      </trkpt>
      <trkpt lat="45.01993" lon="5.79076">
        <ele>1061.1</ele>
        <time>2014-05-21T21:44:25Z</time>
      </trkpt>
      <trkpt lat="45.01908" lon="5.79034">
        <ele>1067.7</ele>
        <time>2014-05-21T21:44:25Z</time>
      </trkpt>
      <trkpt lat="45.0179" lon="5.79">
        <ele>1065.5</ele>
        <time>2014-05-21T21:44:25Z</time>
      </trkpt>
      <trkpt lat="45.01665" lon="5.78962">
        <ele>1061.4</ele>
        <time>2014-05-21T21:44:25Z</time>
      </trkpt>
      <trkpt lat="45.01479" lon="5.7882">
        <ele>1012.4</ele>
        <time>2014-05-21T21:44:25Z</time>
      </trkpt>
      <trkpt lat="45.01187" lon="5.78714">
        <ele>998.7</ele>
        <time>2014-05-21T21:44:25Z</time>
      </trkpt>
      <trkpt lat="45.01208" lon="5.78652">
        <ele>983.7</ele>
        <time>2014-05-21T21:44:25Z</time>
      </trkpt>
      <trkpt lat="45.01362" lon="5.78661">
        <ele>982.4</ele>
        <time>2014-05-21T21:44:25Z</time>
      </trkpt>
      <trkpt lat="45.01519" lon="5.78604">
        <ele>962.9</ele>
        <time>2014-05-21T21:44:25Z</time>
      </trkpt>
      <trkpt lat="45.01686" lon="5.78681">
        <ele>972.3</ele>
        <time>2014-05-21T21:44:25Z</time>
      </trkpt>
      <trkpt lat="45.01841" lon="5.78607">
        <ele>967.8</ele>
        <time>2014-05-21T21:44:25Z</time>
      </trkpt>
      <trkpt lat="45.01821" lon="5.78546">
        <ele>952.8</ele>
        <time>2014-05-21T21:44:25Z</time>
      </trkpt>
      <trkpt lat="45.01912" lon="5.78546">
        <ele>944.3</ele>
        <time>2014-05-21T21:44:25Z</time>
      </trkpt>
      <trkpt lat="45.02011" lon="5.78498">
        <ele>932.6</ele>
        <time>2014-05-21T21:44:25Z</time>
      </trkpt>
      <trkpt lat="45.02091" lon="5.78456">
        <ele>930.8</ele>
        <time>2014-05-21T21:44:25Z</time>
      </trkpt>
      <trkpt lat="45.0224" lon="5.78397">
        <ele>932.2</ele>
        <time>2014-05-21T21:44:25Z</time>
      </trkpt>
      <trkpt lat="45.02353" lon="5.78297">
        <ele>918.8</ele>
        <time>2014-05-21T21:44:25Z</time>
      </trkpt>
      <trkpt lat="45.02421" lon="5.78139">
        <ele>941.2</ele>
        <time>2014-05-21T21:44:25Z</time>
      </trkpt>
      <trkpt lat="45.02304" lon="5.77976">
        <ele>952.5</ele>
        <time>2014-05-21T21:44:25Z</time>
      </trkpt>
      <trkpt lat="45.02179" lon="5.77807">
        <ele>928.9</ele>
        <time>2014-05-21T21:44:25Z</time>
      </trkpt>
      <trkpt lat="45.02323" lon="5.77375">
        <ele>913.3</ele>
        <time>2014-05-21T21:44:25Z</time>
      </trkpt>
      <trkpt lat="45.02563" lon="5.77281">
        <ele>910.8</ele>
        <time>2014-05-21T21:44:25Z</time>
      </trkpt>
      <trkpt lat="45.02593" lon="5.77269">
        <ele>909.8</ele>
        <time>2014-05-21T21:44:25Z</time>
      </trkpt>
      <trkpt lat="45.02574" lon="5.77273">
        <ele>910.3</ele>
        <time>2014-05-21T21:44:25Z</time>
      </trkpt>
      <trkpt lat="45.02615" lon="5.7711">
        <ele>921.9</ele>
        <time>2014-05-21T21:44:25Z</time>
      </trkpt>
      <trkpt lat="45.02776" lon="5.76963">
        <ele>912.2</ele>
        <time>2014-05-21T21:44:25Z</time>
      </trkpt>
      <trkpt lat="45.02812" lon="5.76863">
        <ele>906.6</ele>
        <time>2014-05-21T21:44:25Z</time>
      </trkpt>
      <trkpt lat="45.02883" lon="5.76769">
        <ele>899</ele>
        <time>2014-05-21T21:44:25Z</time>
      </trkpt>
      <trkpt lat="45.02812" lon="5.76709">
        <ele>911</ele>
        <time>2014-05-21T21:44:25Z</time>
      </trkpt>
      <trkpt lat="45.027" lon="5.76699">
        <ele>933.5</ele>
        <time>2014-05-21T21:44:25Z</time>
      </trkpt>
      <trkpt lat="45.02615" lon="5.76638">
        <ele>948.7</ele>
        <time>2014-05-21T21:44:25Z</time>
      </trkpt>
      <trkpt lat="45.02481" lon="5.76591">
        <ele>958.3</ele>
        <time>2014-05-21T21:44:25Z</time>
      </trkpt>
      <trkpt lat="45.02373" lon="5.76486">
        <ele>970.4</ele>
        <time>2014-05-21T21:44:25Z</time>
      </trkpt>
      <trkpt lat="45.02288" lon="5.76461">
        <ele>968.6</ele>
        <time>2014-05-21T21:44:25Z</time>
      </trkpt>
      <trkpt lat="45.02179" lon="5.76506">
        <ele>965.6</ele>
        <time>2014-05-21T21:44:25Z</time>
      </trkpt>
      <trkpt lat="45.02187" lon="5.76416">
        <ele>976.8</ele>
        <time>2014-05-21T21:44:25Z</time>
      </trkpt>
      <trkpt lat="45.02009" lon="5.76333">
        <ele>995.1</ele>
        <time>2014-05-21T21:44:25Z</time>
      </trkpt>
      <trkpt lat="45.01916" lon="5.76318">
        <ele>1002.5</ele>
        <time>2014-05-21T21:44:25Z</time>
      </trkpt>
      <trkpt lat="45.01809" lon="5.7623">
        <ele>1014.2</ele>
        <time>2014-05-21T21:44:25Z</time>
      </trkpt>
      <trkpt lat="45.01751" lon="5.76177">
        <ele>1020.1</ele>
        <time>2014-05-21T21:44:25Z</time>
      </trkpt>
      <trkpt lat="45.01681" lon="5.76167">
        <ele>1013.7</ele>
        <time>2014-05-21T21:44:25Z</time>
      </trkpt>
      <trkpt lat="45.01584" lon="5.76173">
        <ele>1013.4</ele>
        <time>2014-05-21T21:44:25Z</time>
      </trkpt>
      <trkpt lat="45.01495" lon="5.76076">
        <ele>1025.3</ele>
        <time>2014-05-21T21:44:25Z</time>
      </trkpt>
      <trkpt lat="45.01433" lon="5.75981">
        <ele>1035.5</ele>
        <time>2014-05-21T21:44:25Z</time>
      </trkpt>
      <trkpt lat="45.0139" lon="5.75952">
        <ele>1035.3</ele>
        <time>2014-05-21T21:44:25Z</time>
      </trkpt>
      <trkpt lat="45.01428" lon="5.75926">
        <ele>1040.8</ele>
        <time>2014-05-21T21:44:25Z</time>
      </trkpt>
      <trkpt lat="45.01493" lon="5.75918">
        <ele>1046.4</ele>
        <time>2014-05-21T21:44:25Z</time>
      </trkpt>
      <trkpt lat="45.01523" lon="5.75949">
        <ele>1045.2</ele>
        <time>2014-05-21T21:44:25Z</time>
      </trkpt>
      <trkpt lat="45.01557" lon="5.75995">
        <ele>1043.5</ele>
        <time>2014-05-21T21:44:25Z</time>
      </trkpt>
      <trkpt lat="45.01618" lon="5.76007">
        <ele>1042.8</ele>
        <time>2014-05-21T21:44:25Z</time>
      </trkpt>
      <trkpt lat="45.01667" lon="5.7599">
        <ele>1044.2</ele>
        <time>2014-05-21T21:44:25Z</time>
      </trkpt>
      <trkpt lat="45.01714" lon="5.7591">
        <ele>1056.7</ele>
        <time>2014-05-21T21:44:25Z</time>
      </trkpt>
      <trkpt lat="45.01809" lon="5.75875">
        <ele>1070.4</ele>
        <time>2014-05-21T21:44:25Z</time>
      </trkpt>
      <trkpt lat="45.01903" lon="5.75838">
        <ele>1088.8</ele>
        <time>2014-05-21T21:44:25Z</time>
      </trkpt>
      <trkpt lat="45.01984" lon="5.75827">
        <ele>1102.4</ele>
        <time>2014-05-21T21:44:25Z</time>
      </trkpt>
      <trkpt lat="45.02055" lon="5.75858">
        <ele>1103.5</ele>
        <time>2014-05-21T21:44:25Z</time>
      </trkpt>
      <trkpt lat="45.02108" lon="5.75857">
        <ele>1107.1</ele>
        <time>2014-05-21T21:44:25Z</time>
      </trkpt>
      <trkpt lat="45.02153" lon="5.75861">
        <ele>1107.9</ele>
        <time>2014-05-21T21:44:25Z</time>
      </trkpt>
      <trkpt lat="45.02268" lon="5.75846">
        <ele>1112.2</ele>
        <time>2014-05-21T21:44:25Z</time>
      </trkpt>
      <trkpt lat="45.02289" lon="5.75809">
        <ele>1124.9</ele>
        <time>2014-05-21T21:44:25Z</time>
      </trkpt>
      <trkpt lat="45.0233" lon="5.75855">
        <ele>1117.3</ele>
        <time>2014-05-21T21:44:25Z</time>
      </trkpt>
      <trkpt lat="45.02685" lon="5.7573">
        <ele>1143.5</ele>
        <time>2014-05-21T21:44:25Z</time>
      </trkpt>
      <trkpt lat="45.02768" lon="5.75621">
        <ele>1177</ele>
        <time>2014-05-21T21:44:25Z</time>
      </trkpt>
      <trkpt lat="45.02789" lon="5.75504">
        <ele>1209.6</ele>
        <time>2014-05-21T21:44:25Z</time>
      </trkpt>
      <trkpt lat="45.02922" lon="5.75556">
        <ele>1216.3</ele>
        <time>2014-05-21T21:44:25Z</time>
      </trkpt>
      <trkpt lat="45.0287" lon="5.75487">
        <ele>1224.4</ele>
        <time>2014-05-21T21:44:25Z</time>
      </trkpt>
      <trkpt lat="45.02892" lon="5.75451">
        <ele>1232.6</ele>
        <time>2014-05-21T21:44:25Z</time>
      </trkpt>
      <trkpt lat="45.02977" lon="5.75531">
        <ele>1223.3</ele>
        <time>2014-05-21T21:44:25Z</time>
      </trkpt>
      <trkpt lat="45.03217" lon="5.75434">
        <ele>1241.5</ele>
        <time>2014-05-21T21:44:25Z</time>
      </trkpt>
      <trkpt lat="45.03365" lon="5.75435">
        <ele>1236.7</ele>
        <time>2014-05-21T21:44:25Z</time>
      </trkpt>
      <trkpt lat="45.03523" lon="5.75354">
        <ele>1259.8</ele>
        <time>2014-05-21T21:44:25Z</time>
      </trkpt>
      <trkpt lat="45.03658" lon="5.75217">
        <ele>1275.2</ele>
        <time>2014-05-21T21:44:25Z</time>
      </trkpt>
      <trkpt lat="45.03608" lon="5.75151">
        <ele>1290.5</ele>
        <time>2014-05-21T21:44:25Z</time>
      </trkpt>
      <trkpt lat="45.0344" lon="5.75129">
        <ele>1298.1</ele>
        <time>2014-05-21T21:44:25Z</time>
      </trkpt>
      <trkpt lat="45.03395" lon="5.74955">
        <ele>1308.7</ele>
        <time>2014-05-21T21:44:25Z</time>
      </trkpt>
      <trkpt lat="45.03399" lon="5.74791">
        <ele>1311.8</ele>
        <time>2014-05-21T21:44:25Z</time>
      </trkpt>
      <trkpt lat="45.03345" lon="5.74628">
        <ele>1328</ele>
        <time>2014-05-21T21:44:25Z</time>
      </trkpt>
      <trkpt lat="45.03237" lon="5.74508">
        <ele>1344.6</ele>
        <time>2014-05-21T21:44:25Z</time>
      </trkpt>
      <trkpt lat="45.03057" lon="5.74454">
        <ele>1358.4</ele>
        <time>2014-05-21T21:44:25Z</time>
      </trkpt>
      <trkpt lat="45.02946" lon="5.74509">
        <ele>1376</ele>
        <time>2014-05-21T21:44:25Z</time>
      </trkpt>
      <trkpt lat="45.0276" lon="5.74512">
        <ele>1394</ele>
        <time>2014-05-21T21:44:25Z</time>
      </trkpt>
      <trkpt lat="45.02557" lon="5.74566">
        <ele>1415.3</ele>
        <time>2014-05-21T21:44:25Z</time>
      </trkpt>
      <trkpt lat="45.02518" lon="5.74611">
        <ele>1424.3</ele>
        <time>2014-05-21T21:44:25Z</time>
      </trkpt>
      <trkpt lat="45.02353" lon="5.7477">
        <ele>1449.1</ele>
        <time>2014-05-21T21:44:25Z</time>
      </trkpt>
      <trkpt lat="45.02286" lon="5.74745">
        <ele>1452.9</ele>
        <time>2014-05-21T21:44:25Z</time>
      </trkpt>
      <trkpt lat="45.02152" lon="5.74729">
        <ele>1455.6</ele>
        <time>2014-05-21T21:44:25Z</time>
      </trkpt>
      <trkpt lat="45.02043" lon="5.7467">
        <ele>1468</ele>
        <time>2014-05-21T21:44:25Z</time>
      </trkpt>
      <trkpt lat="45.01903" lon="5.74673">
        <ele>1488.3</ele>
        <time>2014-05-21T21:44:25Z</time>
      </trkpt>
      <trkpt lat="45.01666" lon="5.74604">
        <ele>1533.1</ele>
        <time>2014-05-21T21:44:25Z</time>
      </trkpt>
      <trkpt lat="45.0146" lon="5.74462">
        <ele>1579.5</ele>
        <time>2014-05-21T21:44:25Z</time>
      </trkpt>
      <trkpt lat="45.01257" lon="5.74291">
        <ele>1587.1</ele>
        <time>2014-05-21T21:44:25Z</time>
      </trkpt>
      <trkpt lat="45.01205" lon="5.74231">
        <ele>1585.9</ele>
        <time>2014-05-21T21:44:25Z</time>
      </trkpt>
      <trkpt lat="45.01103" lon="5.7412">
        <ele>1578.5</ele>
        <time>2014-05-21T21:44:25Z</time>
      </trkpt>
      <trkpt lat="45.00955" lon="5.74006">
        <ele>1555.4</ele>
        <time>2014-05-21T21:44:25Z</time>
      </trkpt>
      <trkpt lat="45.00834" lon="5.73992">
        <ele>1519.4</ele>
        <time>2014-05-21T21:44:25Z</time>
      </trkpt>
      <trkpt lat="45.00759" lon="5.7388">
        <ele>1519.5</ele>
        <time>2014-05-21T21:44:25Z</time>
      </trkpt>
      <trkpt lat="45.00746" lon="5.73843">
        <ele>1518</ele>
        <time>2014-05-21T21:44:25Z</time>
      </trkpt>
      <trkpt lat="45.00699" lon="5.73846">
        <ele>1518.5</ele>
        <time>2014-05-21T21:44:25Z</time>
      </trkpt>
      <trkpt lat="45.00671" lon="5.73798">
        <ele>1514</ele>
        <time>2014-05-21T21:44:25Z</time>
      </trkpt>
      <trkpt lat="45.00624" lon="5.73748">
        <ele>1507.3</ele>
        <time>2014-05-21T21:44:25Z</time>
      </trkpt>
      <trkpt lat="45.00573" lon="5.73699">
        <ele>1504.7</ele>
        <time>2014-05-21T21:44:25Z</time>
      </trkpt>
      <trkpt lat="45.00534" lon="5.73636">
        <ele>1503.4</ele>
        <time>2014-05-21T21:44:25Z</time>
      </trkpt>
      <trkpt lat="45.00414" lon="5.73599">
        <ele>1514.8</ele>
        <time>2014-05-21T21:44:25Z</time>
      </trkpt>
      <trkpt lat="45.00366" lon="5.73556">
        <ele>1518.5</ele>
        <time>2014-05-21T21:44:25Z</time>
      </trkpt>
      <trkpt lat="45.00329" lon="5.73485">
        <ele>1524.2</ele>
        <time>2014-05-21T21:44:25Z</time>
      </trkpt>
      <trkpt lat="45.00247" lon="5.73474">
        <ele>1540.4</ele>
        <time>2014-05-21T21:44:25Z</time>
      </trkpt>
      <trkpt lat="45.00134" lon="5.73378">
        <ele>1551.6</ele>
        <time>2014-05-21T21:44:25Z</time>
      </trkpt>
      <trkpt lat="45.00103" lon="5.73318">
        <ele>1556.4</ele>
        <time>2014-05-21T21:44:25Z</time>
      </trkpt>
      <trkpt lat="45.00019" lon="5.73242">
        <ele>1564.7</ele>
        <time>2014-05-21T21:44:25Z</time>
      </trkpt>
      <trkpt lat="44.99918" lon="5.73108">
        <ele>1569</ele>
        <time>2014-05-21T21:44:25Z</time>
      </trkpt>
      <trkpt lat="44.9983" lon="5.73036">
        <ele>1588.8</ele>
        <time>2014-05-21T21:44:25Z</time>
      </trkpt>
      <trkpt lat="44.9974" lon="5.73004">
        <ele>1596.8</ele>
        <time>2014-05-21T21:44:25Z</time>
      </trkpt>
      <trkpt lat="44.99667" lon="5.72914">
        <ele>1600.1</ele>
        <time>2014-05-21T21:44:25Z</time>
      </trkpt>
      <trkpt lat="44.99528" lon="5.72863">
        <ele>1610.6</ele>
        <time>2014-05-21T21:44:25Z</time>
      </trkpt>
      <trkpt lat="44.99432" lon="5.72785">
        <ele>1620</ele>
        <time>2014-05-21T21:44:25Z</time>
      </trkpt>
      <trkpt lat="44.99363" lon="5.72686">
        <ele>1622.4</ele>
        <time>2014-05-21T21:44:25Z</time>
      </trkpt>
      <trkpt lat="44.99184" lon="5.72464">
        <ele>1687.6</ele>
        <time>2014-05-21T21:44:25Z</time>
      </trkpt>
      <trkpt lat="44.99185" lon="5.72468">
        <ele>1687</ele>
        <time>2014-05-21T21:44:25Z</time>
      </trkpt>
      <trkpt lat="44.99362" lon="5.7267">
        <ele>1621.4</ele>
        <time>2014-05-21T21:44:25Z</time>
      </trkpt>
      <trkpt lat="44.99477" lon="5.72665">
        <ele>1610.6</ele>
        <time>2014-05-21T21:44:25Z</time>
      </trkpt>
      <trkpt lat="44.9957" lon="5.72717">
        <ele>1606.5</ele>
        <time>2014-05-21T21:44:25Z</time>
      </trkpt>
      <trkpt lat="44.99736" lon="5.7268">
        <ele>1601.9</ele>
        <time>2014-05-21T21:44:25Z</time>
      </trkpt>
      <trkpt lat="44.9957" lon="5.72529">
        <ele>1590.7</ele>
        <time>2014-05-21T21:44:25Z</time>
      </trkpt>
      <trkpt lat="44.99531" lon="5.72263">
        <ele>1508.1</ele>
        <time>2014-05-21T21:44:25Z</time>
      </trkpt>
      <trkpt lat="44.99545" lon="5.72043">
        <ele>1489.9</ele>
        <time>2014-05-21T21:44:25Z</time>
      </trkpt>
      <trkpt lat="44.99527" lon="5.71899">
        <ele>1499.4</ele>
        <time>2014-05-21T21:44:25Z</time>
      </trkpt>
      <trkpt lat="44.99453" lon="5.71834">
        <ele>1525.5</ele>
        <time>2014-05-21T21:44:25Z</time>
      </trkpt>
      <trkpt lat="44.99297" lon="5.71762">
        <ele>1535.6</ele>
        <time>2014-05-21T21:44:25Z</time>
      </trkpt>
      <trkpt lat="44.99235" lon="5.7177">
        <ele>1548.3</ele>
        <time>2014-05-21T21:44:25Z</time>
      </trkpt>
      <trkpt lat="44.99118" lon="5.71845">
        <ele>1573.1</ele>
        <time>2014-05-21T21:44:25Z</time>
      </trkpt>
      <trkpt lat="44.98863" lon="5.71861">
        <ele>1527.7</ele>
        <time>2014-05-21T21:44:25Z</time>
      </trkpt>
      <trkpt lat="44.98695" lon="5.71845">
        <ele>1502.4</ele>
        <time>2014-05-21T21:44:25Z</time>
      </trkpt>
      <trkpt lat="44.98576" lon="5.71892">
        <ele>1496.2</ele>
        <time>2014-05-21T21:44:25Z</time>
      </trkpt>
      <trkpt lat="44.9835" lon="5.71814">
        <ele>1441.1</ele>
        <time>2014-05-21T21:44:25Z</time>
      </trkpt>
      <trkpt lat="44.98206" lon="5.71746">
        <ele>1403.4</ele>
        <time>2014-05-21T21:44:25Z</time>
      </trkpt>
      <trkpt lat="44.9817" lon="5.71772">
        <ele>1399.4</ele>
        <time>2014-05-21T21:44:25Z</time>
      </trkpt>
      <trkpt lat="44.98152" lon="5.71735">
        <ele>1389.2</ele>
        <time>2014-05-21T21:44:25Z</time>
      </trkpt>
      <trkpt lat="44.98095" lon="5.71788">
        <ele>1372.9</ele>
        <time>2014-05-21T21:44:25Z</time>
      </trkpt>
      <trkpt lat="44.97969" lon="5.7173">
        <ele>1330.6</ele>
        <time>2014-05-21T21:44:25Z</time>
      </trkpt>
      <trkpt lat="44.97818" lon="5.71689">
        <ele>1293.5</ele>
        <time>2014-05-21T21:44:25Z</time>
      </trkpt>
      <trkpt lat="44.97448" lon="5.71621">
        <ele>1231.2</ele>
        <time>2014-05-21T21:44:25Z</time>
      </trkpt>
      <trkpt lat="44.97193" lon="5.71516">
        <ele>1170.6</ele>
        <time>2014-05-21T21:44:25Z</time>
      </trkpt>
      <trkpt lat="44.9702" lon="5.71506">
        <ele>1147.2</ele>
        <time>2014-05-21T21:44:25Z</time>
      </trkpt>
      <trkpt lat="44.96975" lon="5.71542">
        <ele>1137.4</ele>
        <time>2014-05-21T21:44:25Z</time>
      </trkpt>
      <trkpt lat="44.97029" lon="5.71668">
        <ele>1117</ele>
        <time>2014-05-21T21:44:25Z</time>
      </trkpt>
      <trkpt lat="44.97101" lon="5.71725">
        <ele>1115.8</ele>
        <time>2014-05-21T21:44:25Z</time>
      </trkpt>
      <trkpt lat="44.97198" lon="5.71876">
        <ele>1089.8</ele>
        <time>2014-05-21T21:44:25Z</time>
      </trkpt>
      <trkpt lat="44.97317" lon="5.71981">
        <ele>1098.4</ele>
        <time>2014-05-21T21:44:25Z</time>
      </trkpt>
      <trkpt lat="44.97313" lon="5.72122">
        <ele>1063.5</ele>
        <time>2014-05-21T21:44:25Z</time>
      </trkpt>
      <trkpt lat="44.97389" lon="5.72258">
        <ele>1054</ele>
        <time>2014-05-21T21:44:25Z</time>
      </trkpt>
      <trkpt lat="44.97532" lon="5.72492">
        <ele>1000.3</ele>
        <time>2014-05-21T21:44:25Z</time>
      </trkpt>
      <trkpt lat="44.97601" lon="5.72513">
        <ele>1013.6</ele>
        <time>2014-05-21T21:44:25Z</time>
      </trkpt>
      <trkpt lat="44.97547" lon="5.72633">
        <ele>1007.3</ele>
        <time>2014-05-21T21:44:25Z</time>
      </trkpt>
      <trkpt lat="44.97496" lon="5.7279">
        <ele>994.8</ele>
        <time>2014-05-21T21:44:25Z</time>
      </trkpt>
      <trkpt lat="44.97446" lon="5.729">
        <ele>981</ele>
        <time>2014-05-21T21:44:25Z</time>
      </trkpt>
      <trkpt lat="44.97374" lon="5.72915">
        <ele>959.2</ele>
        <time>2014-05-21T21:44:25Z</time>
      </trkpt>
      <trkpt lat="44.97349" lon="5.72999">
        <ele>944.7</ele>
        <time>2014-05-21T21:44:25Z</time>
      </trkpt>
      <trkpt lat="44.97299" lon="5.72999">
        <ele>930.9</ele>
        <time>2014-05-21T21:44:25Z</time>
      </trkpt>
      <trkpt lat="44.97299" lon="5.73041">
        <ele>929.1</ele>
        <time>2014-05-21T21:44:25Z</time>
      </trkpt>
      <trkpt lat="44.97259" lon="5.73035">
        <ele>918.2</ele>
        <time>2014-05-21T21:44:25Z</time>
      </trkpt>
      <trkpt lat="44.97295" lon="5.7314">
        <ele>918.9</ele>
        <time>2014-05-21T21:44:25Z</time>
      </trkpt>
      <trkpt lat="44.97288" lon="5.73208">
        <ele>900.1</ele>
        <time>2014-05-21T21:44:25Z</time>
      </trkpt>
      <trkpt lat="44.97356" lon="5.73291">
        <ele>901.9</ele>
        <time>2014-05-21T21:44:25Z</time>
      </trkpt>
      <trkpt lat="44.97173" lon="5.73249">
        <ele>859.3</ele>
        <time>2014-05-21T21:44:25Z</time>
      </trkpt>
      <trkpt lat="44.97082" lon="5.73365">
        <ele>875.1</ele>
        <time>2014-05-21T21:44:25Z</time>
      </trkpt>
      <trkpt lat="44.96946" lon="5.7346">
        <ele>901.8</ele>
        <time>2014-05-21T21:44:25Z</time>
      </trkpt>
      <trkpt lat="44.96873" lon="5.73478">
        <ele>910.2</ele>
        <time>2014-05-21T21:44:25Z</time>
      </trkpt>
      <trkpt lat="44.96788" lon="5.73579">
        <ele>927.8</ele>
        <time>2014-05-21T21:44:25Z</time>
      </trkpt>
      <trkpt lat="44.96728" lon="5.73614">
        <ele>932.4</ele>
        <time>2014-05-21T21:44:25Z</time>
      </trkpt>
      <trkpt lat="44.9673" lon="5.73609">
        <ele>931.8</ele>
        <time>2058-10-09T19:28:50Z</time>
      </trkpt>
      <trkpt lat="44.96692" lon="5.73743">
        <ele>943.1</ele>
        <time>2058-10-09T19:28:50Z</time>
      </trkpt>
      <trkpt lat="44.96725" lon="5.73832">
        <ele>950.6</ele>
        <time>2058-10-09T19:28:50Z</time>
      </trkpt>
      <trkpt lat="44.96717" lon="5.73917">
        <ele>956.2</ele>
        <time>2058-10-09T19:28:50Z</time>
      </trkpt>
      <trkpt lat="44.96735" lon="5.74038">
        <ele>973.2</ele>
        <time>2058-10-09T19:28:50Z</time>
      </trkpt>
      <trkpt lat="44.96698" lon="5.74138">
        <ele>988.7</ele>
        <time>2058-10-09T19:28:50Z</time>
      </trkpt>
      <trkpt lat="44.96716" lon="5.7417">
        <ele>994</ele>
        <time>2058-10-09T19:28:50Z</time>
      </trkpt>
      <trkpt lat="44.96749" lon="5.7415">
        <ele>992.1</ele>
        <time>2058-10-09T19:28:50Z</time>
      </trkpt>
      <trkpt lat="44.96813" lon="5.74214">
        <ele>998.7</ele>
        <time>2058-10-09T19:28:50Z</time>
      </trkpt>
      <trkpt lat="44.96876" lon="5.74301">
        <ele>1006.3</ele>
        <time>2058-10-09T19:28:50Z</time>
      </trkpt>
      <trkpt lat="44.96907" lon="5.74385">
        <ele>1015.7</ele>
        <time>2058-10-09T19:28:50Z</time>
      </trkpt>
      <trkpt lat="44.96954" lon="5.74437">
        <ele>1021.9</ele>
        <time>2058-10-09T19:28:50Z</time>
      </trkpt>
      <trkpt lat="44.96986" lon="5.74505">
        <ele>1029.2</ele>
        <time>2058-10-09T19:28:50Z</time>
      </trkpt>
      <trkpt lat="44.96953" lon="5.74523">
        <ele>1034.7</ele>
        <time>2058-10-09T19:28:50Z</time>
      </trkpt>
      <trkpt lat="44.97027" lon="5.74642">
        <ele>1050.7</ele>
        <time>2058-10-09T19:28:50Z</time>
      </trkpt>
      <trkpt lat="44.97157" lon="5.74775">
        <ele>1065.5</ele>
        <time>2058-10-09T19:28:50Z</time>
      </trkpt>
      <trkpt lat="44.97205" lon="5.74837">
        <ele>1070.8</ele>
        <time>2058-10-09T19:28:50Z</time>
      </trkpt>
      <trkpt lat="44.97201" lon="5.74912">
        <ele>1085.2</ele>
        <time>2058-10-09T19:28:50Z</time>
      </trkpt>
      <trkpt lat="44.97302" lon="5.75099">
        <ele>1099.5</ele>
        <time>2058-10-09T19:28:50Z</time>
      </trkpt>
      <trkpt lat="44.97277" lon="5.75271">
        <ele>1128.2</ele>
        <time>2058-10-09T19:28:50Z</time>
      </trkpt>
      <trkpt lat="44.97106" lon="5.75402">
        <ele>1158.9</ele>
        <time>2058-10-09T19:28:50Z</time>
      </trkpt>
      <trkpt lat="44.96959" lon="5.75544">
        <ele>1179.5</ele>
        <time>2058-10-09T19:28:50Z</time>
      </trkpt>
      <trkpt lat="44.96935" lon="5.75693">
        <ele>1209</ele>
        <time>2058-10-09T19:28:50Z</time>
      </trkpt>
      <trkpt lat="44.9686" lon="5.75747">
        <ele>1199.1</ele>
        <time>2058-10-09T19:28:50Z</time>
      </trkpt>
      <trkpt lat="44.9679" lon="5.75762">
        <ele>1193</ele>
        <time>2058-10-09T19:28:50Z</time>
      </trkpt>
      <trkpt lat="44.96699" lon="5.7584">
        <ele>1208</ele>
        <time>2058-10-09T19:28:50Z</time>
      </trkpt>
      <trkpt lat="44.96578" lon="5.75847">
        <ele>1207.3</ele>
        <time>2058-10-09T19:28:50Z</time>
      </trkpt>
      <trkpt lat="44.9651" lon="5.75876">
        <ele>1213.6</ele>
        <time>2058-10-09T19:28:50Z</time>
      </trkpt>
      <trkpt lat="44.9656" lon="5.75993">
        <ele>1243.1</ele>
        <time>2058-10-09T19:28:50Z</time>
      </trkpt>
      <trkpt lat="44.96657" lon="5.76038">
        <ele>1252</ele>
        <time>2058-10-09T19:28:50Z</time>
      </trkpt>
      <trkpt lat="44.96814" lon="5.76042">
        <ele>1261.9</ele>
        <time>2058-10-09T19:28:50Z</time>
      </trkpt>
      <trkpt lat="44.9699" lon="5.75967">
        <ele>1269.1</ele>
        <time>2058-10-09T19:28:50Z</time>
      </trkpt>
      <trkpt lat="44.97089" lon="5.75889">
        <ele>1265.1</ele>
        <time>2058-10-09T19:28:50Z</time>
      </trkpt>
      <trkpt lat="44.97238" lon="5.75882">
        <ele>1252.3</ele>
        <time>2058-10-09T19:28:50Z</time>
      </trkpt>
      <trkpt lat="44.9733" lon="5.75924">
        <ele>1248.9</ele>
        <time>2058-10-09T19:28:50Z</time>
      </trkpt>
      <trkpt lat="44.97485" lon="5.75958">
        <ele>1244.5</ele>
        <time>2058-10-09T19:28:50Z</time>
      </trkpt>
      <trkpt lat="44.97512" lon="5.76033">
        <ele>1243.5</ele>
        <time>2058-10-09T19:28:50Z</time>
      </trkpt>
      <trkpt lat="44.97589" lon="5.76043">
        <ele>1240.9</ele>
        <time>2058-10-09T19:28:50Z</time>
      </trkpt>
      <trkpt lat="44.97701" lon="5.76022">
        <ele>1244.4</ele>
        <time>2058-10-09T19:28:50Z</time>
      </trkpt>
      <trkpt lat="44.97803" lon="5.75989">
        <ele>1234.4</ele>
        <time>2058-10-09T19:28:50Z</time>
      </trkpt>
      <trkpt lat="44.9795" lon="5.76093">
        <ele>1215.7</ele>
        <time>2058-10-09T19:28:50Z</time>
      </trkpt>
      <trkpt lat="44.98129" lon="5.76182">
        <ele>1189.6</ele>
        <time>2058-10-09T19:28:50Z</time>
      </trkpt>
      <trkpt lat="44.98248" lon="5.76189">
        <ele>1165.3</ele>
        <time>2058-10-09T19:28:50Z</time>
      </trkpt>
      <trkpt lat="44.9832" lon="5.7623">
        <ele>1158.6</ele>
        <time>2058-10-09T19:28:50Z</time>
      </trkpt>
      <trkpt lat="44.98408" lon="5.76199">
        <ele>1149.6</ele>
        <time>2058-10-09T19:28:50Z</time>
      </trkpt>
      <trkpt lat="44.98555" lon="5.76233">
        <ele>1136.2</ele>
        <time>2058-10-09T19:28:50Z</time>
      </trkpt>
      <trkpt lat="44.98709" lon="5.76247">
        <ele>1123.7</ele>
        <time>2058-10-09T19:28:50Z</time>
      </trkpt>
      <trkpt lat="44.98741" lon="5.76359">
        <ele>1105.4</ele>
        <time>2058-10-09T19:28:50Z</time>
      </trkpt>
      <trkpt lat="44.98826" lon="5.76426">
        <ele>1088.5</ele>
        <time>2058-10-09T19:28:50Z</time>
      </trkpt>
      <trkpt lat="44.9884" lon="5.76505">
        <ele>1073</ele>
        <time>2058-10-09T19:28:50Z</time>
      </trkpt>
      <trkpt lat="44.98787" lon="5.76619">
        <ele>1057</ele>
        <time>2058-10-09T19:28:50Z</time>
      </trkpt>
      <trkpt lat="44.98985" lon="5.76631">
        <ele>1040</ele>
        <time>2058-10-09T19:28:50Z</time>
      </trkpt>
      <trkpt lat="44.99096" lon="5.76658">
        <ele>1026.7</ele>
        <time>2058-10-09T19:28:50Z</time>
      </trkpt>
      <trkpt lat="44.99154" lon="5.76708">
        <ele>1010.9</ele>
        <time>2058-10-09T19:28:50Z</time>
      </trkpt>
      <trkpt lat="44.99212" lon="5.76778">
        <ele>994</ele>
        <time>2058-10-09T19:28:50Z</time>
      </trkpt>
      <trkpt lat="44.9932" lon="5.7676">
        <ele>994</ele>
        <time>2058-10-09T19:28:50Z</time>
      </trkpt>
      <trkpt lat="44.99357" lon="5.76825">
        <ele>987.7</ele>
        <time>2058-10-09T19:28:50Z</time>
      </trkpt>
      <trkpt lat="44.9949" lon="5.76743">
        <ele>1007.5</ele>
        <time>2058-10-09T19:28:50Z</time>
      </trkpt>
      <trkpt lat="44.99554" lon="5.76741">
        <ele>1020.2</ele>
        <time>2058-10-09T19:28:50Z</time>
      </trkpt>
      <trkpt lat="44.99582" lon="5.76831">
        <ele>1015.1</ele>
        <time>2058-10-09T19:28:50Z</time>
      </trkpt>
      <trkpt lat="44.99552" lon="5.76933">
        <ele>994.1</ele>
        <time>2058-10-09T19:28:50Z</time>
      </trkpt>
      <trkpt lat="44.99597" lon="5.76963">
        <ele>995.2</ele>
        <time>2058-10-09T19:28:50Z</time>
      </trkpt>
      <trkpt lat="44.99667" lon="5.77044">
        <ele>986.4</ele>
        <time>2058-10-09T19:28:50Z</time>
      </trkpt>
      <trkpt lat="44.9975" lon="5.77107">
        <ele>970.4</ele>
        <time>2058-10-09T19:28:50Z</time>
      </trkpt>
      <trkpt lat="44.99793" lon="5.77296">
        <ele>939.7</ele>
        <time>2058-10-09T19:28:50Z</time>
      </trkpt>
      <trkpt lat="44.99886" lon="5.77291">
        <ele>932.9</ele>
        <time>2058-10-09T19:28:50Z</time>
      </trkpt>
      <trkpt lat="44.99886" lon="5.77384">
        <ele>924.3</ele>
        <time>2058-10-09T19:28:50Z</time>
      </trkpt>
    </trkseg>
  </trk>
</gpx>